Hourly Data Report for September 07, 2017

All times are specified in Local Standard Time (LST). Add 1 hour to adjust for Daylight Saving Time where and when it is observed.

MISCOU ISLAND (AUT)
NEW BRUNSWICK

48°00'32.002" N
64°29'39.008" W
4.00 m
8103050
71719
WMI

Download Data

Hourly Data (September 2017)
Hourly Data Report for September 7, 2017
Temp Definition
°C
Dew Point Temp Definition
°C
Rel Hum Definition
%
Wind Dir Definition
10's deg

Wind Spd Definition
km/h
Visibility Definition
km
Stn Press Definition
kPa
Hmdx Definition


Wind Chill Definition


Weather Definition


TIME
00:00 15.4 14.8 96 7 7   101.39     LegendNANA
01:00 15.4 14.8 96 5 3   101.39     LegendNANA
02:00 15.6 15.0 96 7 5   101.37     LegendNANA
03:00 16.0 15.4 96 7 6   101.34     LegendNANA
04:00 15.2 14.7 97 6 13   101.28     LegendNANA
05:00 14.6 14.1 97 6 16   101.23     LegendNANA
06:00 15.5 15.0 97 8 10   101.14     LegendNANA
07:00 16.8 16.3 97 14 14   101.03     LegendNANA
08:00 17.5 16.9 97 17 17   100.93     LegendNANA
09:00 18.0 17.4 97 16 23   100.83     LegendNANA
10:00 18.6 18.0 97 16 14   100.73     LegendNANA
11:00 19.0 18.5 97 17 23   100.62     LegendNANA
12:00 18.9 18.3 96 17 28   100.52     LegendNANA
13:00 19.1 18.5 96 17 30   100.41     LegendNANA
14:00 18.8 18.1 96 17 32   100.37     LegendNANA
15:00 19.0 18.3 96 17 26   100.29     LegendNANA
16:00 18.9 18.2 96 16 25   100.22     LegendNANA
17:00 18.8 18.1 95 18 29   100.20     LegendNANA
18:00 19.3 18.3 94 18 24   100.17     LegendNANA
19:00 19.0 17.7 92 18 29   100.20     LegendNANA
20:00 18.5 17.1 92 18 27   100.23     LegendNANA
21:00 18.7 16.9 90 23 27   100.34     LegendNANA
22:00 17.5 14.9 85 22 24   100.45     LegendNANA
23:00 17.2 14.7 85 21 26   100.47     LegendNANA

Notes on Data Quality.

Legend

  • E = Estimated
  • M = Missing
  • NA = Not Available
  • ‡ = Partner data that is not subject to review by the National Climate Archives
Date modified: